Flag for Sudan Weather past 2 weeks in Port Sudan, Sudan

Now
102 °F

Sunny.


Feels Like: 110 °F
Forecast: 86 / 110 °F
Wind: 17 mph from West

Location: Jeddah King Abdul Aziz International Airport

Current Time: Aug 1, 2015 at 3:34:37 PM

Latest Report: Aug 1, 2015 at 3:00 PM


Visibility: 10 mi

Pressure: 29.53 "Hg

Humidity: 35%

Dew point: 70 °F

Location of Port SudanLocation

Historic Weather in Port Sudan — Graph

°F

Port Sudan temperature yesterday

Maximum temperature yesterday: 109 °F (at 2:00 PM)
Minimum temperature yesterday: 86 °F (at 3:00 AM)
Average temperature yesterday: 97 °F

Past Weeks' High & Low Weather Summary

 TemperatureHumidityPressure
High109 °F (Jul 26, 1:00 PM)89% (Jul 28, 5:00 AM)29.71 "Hg (Jul 28, 5:00 AM)
Low79 °F (Jul 20, 6:00 AM)8% (Jul 23, 3:00 PM)29.53 "Hg (Jul 27, 2:00 AM)
Average94 °F42%29.61 "Hg
* Reported Jul 17 2:00 PM — Aug 1 2:00 PM, Port Sudan, Weather by CustomWeather, © 2015

Note: Actual official high and low records may vary slightly from our data, if they occured in-between our weather recording intervals... More about our weather records

Advertising

Port Sudan weather history for previous 24 hours

 ConditionsComfort  
Time TempWeatherWind HumidityBarometerVisibility
2:00 PM
Sat, Aug 1
106 °FSunny.21 mph26%29.53 "Hg10 mi
1:00 PM100 °FPassing clouds.16 mph37%29.56 "HgN/A
12:00 PM102 °FSunny.9 mph40%29.62 "Hg10 mi
11:00 AM97 °FPassing clouds.12 mph47%29.59 "HgN/A
10:00 AM97 °FPassing clouds.9 mph50%29.59 "HgN/A
9:00 AM93 °FPassing clouds.5 mph59%29.56 "HgN/A
8:00 AM91 °FScattered clouds.5 mph63%29.56 "HgN/A
7:00 AM90 °FPassing clouds.5 mph67%29.53 "HgN/A
6:00 AM90 °FPassing clouds.5 mph59%29.53 "HgN/A
5:00 AM90 °FClear.2 mph59%29.53 "Hg10 mi
4:00 AM91 °FPassing clouds.No wind46%29.53 "HgN/A
3:00 AM93 °FPassing clouds.5 mph30%29.53 "HgN/A
2:00 AM93 °FPassing clouds.2 mph34%29.53 "HgN/A
1:00 AM97 °FClear.5 mph30%29.53 "Hg10 mi
12:00 AM97 °FClear.2 mph32%29.56 "Hg10 mi
11:00 PM
Fri, Jul 31
97 °FClear.No wind34%29.56 "Hg10 mi
10:00 PM99 °FClear.5 mph33%29.56 "Hg10 mi
9:00 PM97 °FClear.9 mph32%29.56 "Hg10 mi
8:00 PM97 °FClear.9 mph32%29.56 "Hg10 mi
7:00 PM99 °FSunny.14 mph31%29.53 "Hg10 mi
6:00 PM99 °FSunny.14 mph31%29.53 "Hg10 mi
5:00 PM102 °FPassing clouds.16 mph24%29.53 "HgN/A
4:00 PM104 °FPassing clouds.16 mph20%29.53 "HgN/A
3:00 PM106 °FPassing clouds.16 mph17%29.56 "HgN/A
Weather by CustomWeather, © 2015

See weather overviewHow to use our weather pages